Lexington Weather

Lexington, Massachusetts, USA

73°F
9/22/2021 1:38pm 
  • Lexington Conditions: Overcast
  • Temperature: 73.4°F / 23.0°CColder 2.2°F than last hour.
  • Dew Point: 68.0°FDecreased 0.9°Fsince last hour.
  • Relative Humidity: 83%Increased 3.0% since last hour.
  • Wind: Wind from S S 2 mph, 10-min avg: 4 mph, gust: 12 mph
  • Barometer: 30.10 in Steady
  • Visibility: 10 miles
  • Rain Today: 0.00 in
  •   

Regional Weather Roundup
for Boston / Norton, MA

        
000
ASUS41 KBOX 171504
RWRBOX

REGIONAL WEATHER ROUNDUP
NATIONAL WEATHER SERVICE BOSTON/NORTON MA
1100 AM EDT FRI SEP 17 2021

NOTE:  "FAIR" INDICATES FEW OR NO CLOUDS BELOW 12,000 FEET WITH NO 
SIGNIFICANT WEATHER AND/OR OBSTRUCTIONS TO VISIBILITY.

MAZALL-171600-
EASTERN MASSACHUSETTS
  
CITY           SKY/WX    TMP DP  RH WIND       PRES   REMARKS
BOSTON         CLOUDY    67  62  84 NE13      30.34S                  
BEVERLY        CLOUDY    65  62  90 NE10      30.34S                  
LAWRENCE       CLOUDY    65  61  87 NE10      30.37S                  
BEDFORD        CLOUDY    65  63  93 NE8       30.33F FOG              
BLUE HILL      NOT AVBL                                               
NORWOOD        CLOUDY    67  63  87 NE9       30.33F                  
MARSHFIELD     CLOUDY    68  64  88 VRB5      30.32F                  
PLYMOUTH       LGT RAIN  67  66  97 NE6       30.32S                  
TAUNTON        LGT RAIN  67  65  93 NE5       30.31S FOG              
NEW BEDFORD    RAIN      70  68  93 NE6       30.29F FOG              
$$

MAZALL-171600-
CAPE COD AND THE ISLANDS
  
CITY           SKY/WX    TMP DP  RH WIND       PRES   REMARKS
FALMOUTH       NOT AVBL                                               
HYANNIS        CLOUDY    75  70  84 E6        30.28F                  
CHATHAM        PTSUNNY   72  67  84 E10       30.31F                  
PROVINCETOWN   CLOUDY    68  66  93 NE9       30.32F                  
NANTUCKET      CLOUDY    75  69  81 E13       30.28S                  
MARTHAS VNYRD  CLOUDY    73  71  93 E13       30.28F                  
$$
 
MAZALL-171600-
CENTRAL AND WESTERN MASSACHUSETTS
  
CITY           SKY/WX    TMP DP  RH WIND       PRES   REMARKS
WORCESTER      FOG       61  61 100 NE7       30.35S VSB 1/4          
FITCHBURG      CLOUDY    63  59  87 N6        30.36S                  
ORANGE         CLOUDY    66  60  81 N6        30.35F                  
SPRINGFIELD    NOT AVBL                                               
WESTFIELD      CLOUDY    67  62  84 N8        30.32F                  
NORTH ADAMS    CLOUDY    66  60  81 E7        30.33F                  
PITTSFIELD     CLOUDY    65  61  87 NE7       30.32F                  
$$
 
RIZALL-171600-
RHODE ISLAND
  
CITY           SKY/WX    TMP DP  RH WIND       PRES   REMARKS
PROVIDENCE     CLOUDY    68  66  93 N10       30.31F                  
NEWPORT        LGT RAIN  68  68 100 NE12      30.29F FOG              
BLOCK ISLAND   LGT RAIN  68  67  96 NE10G18   30.28F FOG              
SMITHFIELD     CLOUDY    65  64  97 NE10      30.33S                  
WESTERLY       CLOUDY    69  67  93 NE7       30.28S                  
$$
 
CTZALL-171600-
CONNECTICUT
  
CITY           SKY/WX    TMP DP  RH WIND       PRES   REMARKS
BRADLEY INTL   CLOUDY    68  63  84 N9        30.31F                  
HARTFORD       CLOUDY    69  62  78 N7        30.29F                  
BRIDGEPORT     CLOUDY    72  66  81 NE10      30.26F                  
DANBURY        CLOUDY    69  65  86 NE8       30.30S                  
GROTON         PTSUNNY   75  68  78 E12       30.26F                  
NEW HAVEN      CLOUDY    74  68  81 N9        30.27F                  
CHESTER        CLOUDY   N/A N/A N/A NE7G14    30.28F                  
MERIDEN        CLOUDY    69  62  78 N9        30.29F                  
WILLIMANTIC    CLOUDY    68  64  87 NE8       30.30F                  
OXFORD         CLOUDY    66  64  93 NE10      30.31S                  
$$

MEZ002-015-021-024-NHZ003-005-008-011-012-014-VTZ005-008-171600-
NORTHERN NEW ENGLAND
  
CITY           SKY/WX    TMP DP  RH WIND       PRES   REMARKS
PORTLAND ME    MOSUNNY   67  52  58 E7        30.36F                  
BANGOR ME      MOSUNNY   67  53  61 CALM      30.37F                  
CONCORD NH     CLOUDY    67  58  72 VRB6      30.35F                  
MANCHESTER NH  CLOUDY    66  59  78 NE7       30.34F                  
NASHUA NH      CLOUDY    64  63  96 N5        30.36F                  
PORTSMOUTH NH  CLOUDY    67  58  72 E6        30.36F                  
JAFFREY NH     CLOUDY    62  60  93 CALM      30.37F                  
KEENE NH       CLOUDY    66  60  81 N3        30.35F                  
BURLINGTON VT  PTSUNNY   72  63  73 S6        30.27S                  
MT. WASHINGTON FOG       52  52 100 SW12G18     N/A  VSB 1/16         
$$

NYZ052-076-171600-
EASTERN NEW YORK
  
CITY           SKY/WX    TMP DP  RH WIND       PRES   REMARKS
ALBANY         CLOUDY    68  63  84 SE10      30.29F                  
NEW YORK CITY  CLOUDY    71  65  81 NE15      30.25F                  
$$
 
ANZALL-171600-
MARINE OBSERVATIONS
  
STATION/POSITION TIME  TEMP    WIND        PRES    VSBY  WAVE
                       AIR SEA DIR/SP/G                  HT/PER
                 (UTC) (F)     (DEG/KT/KT) (MB)    (MI)  (FT/S)
BOSTON BUOY      1440      66   40/ 12/ 16 1027.5R
BUZZARDS BAY     1400           30/ 18/ 19 1026.5F
NANTUCKET SOUND  1440   71 72   70/ 16/ 17 1025.5F
MASS BAY-STELLWA 1404   64      40/ 14/ 16 1027.0F  1 7/8  3/ 4
ISLE OF SHOALS   1400   61      30/ 16/ 18 1027.3F
S OF BLOCK IS    1426      69                N/A           4/ 7
$$

......................KEY.........................
  SKY/WX - SKY CONDITION/PRESENT WEATHER
  TMP    - TEMPERATURE IN FAHRENHEIT
  DWPT   - DEWPOINT IN FAHRENHEIT
  RH     - RELATIVE HUMIDITY IN PERCENT
  WIND   - DIRECTION AND SPEED IN MPH
  PRES   - MEAN SEA LEVEL PRESSURE IN INCHES OF HG
  WCI    - WIND CHILL INDEX
  VSB    - VISIBILITY IN MILES
  HX     - HEAT INDEX
  TC     - TEMPERATURE IN CELSIUS
  VRB    - VARIABLE WIND DIRECTION
  N/A    - NOT AVAILABLE
  
      

Other recent Regional Weather Roundups

Wed Sep 22, 1:04pm

Wed Sep 22, 12:05pm

Wed Sep 22, 11:04am

Wed Sep 22, 10:04am

Wed Sep 22, 9:04am

Wed Sep 22, 8:04am

Wed Sep 22, 7:04am

Wed Sep 22, 6:04am

Wed Sep 22, 5:04am

Wed Sep 22, 4:04am

Wed Sep 22, 3:04am

Wed Sep 22, 2:04am

Wed Sep 22, 1:04am

Wed Sep 22, 12:04am

Tue Sep 21, 11:04pm

Tue Sep 21, 10:04pm

Tue Sep 21, 9:04pm

Tue Sep 21, 8:04pm

Tue Sep 21, 7:04pm

Tue Sep 21, 6:04pm

Tue Sep 21, 5:04pm

Tue Sep 21, 4:04pm

Tue Sep 21, 3:04pm

Tue Sep 21, 2:04pm

Tue Sep 21, 1:04pm

Tue Sep 21, 12:04pm

Tue Sep 21, 11:04am

Tue Sep 21, 10:04am

Tue Sep 21, 9:04am

Tue Sep 21, 8:04am

Tue Sep 21, 7:04am

Tue Sep 21, 6:04am

Tue Sep 21, 5:04am

Tue Sep 21, 4:04am

Tue Sep 21, 3:04am

Tue Sep 21, 2:04am

Tue Sep 21, 1:04am

Tue Sep 21, 12:04am

Mon Sep 20, 11:04pm

Mon Sep 20, 10:04pm

Mon Sep 20, 9:04pm

Mon Sep 20, 8:04pm

Mon Sep 20, 7:04pm

Mon Sep 20, 6:04pm

Mon Sep 20, 5:04pm

Mon Sep 20, 4:04pm

Mon Sep 20, 3:04pm

Mon Sep 20, 2:04pm

Mon Sep 20, 1:04pm

Mon Sep 20, 12:04pm

Mon Sep 20, 11:04am

Mon Sep 20, 10:04am

Mon Sep 20, 9:04am

Mon Sep 20, 7:04am

Mon Sep 20, 6:04am

Mon Sep 20, 5:04am

Mon Sep 20, 4:04am

Mon Sep 20, 3:04am

Mon Sep 20, 2:04am

Mon Sep 20, 1:04am

Mon Sep 20, 12:04am

Sun Sep 19, 11:04pm

Sun Sep 19, 10:04pm

Sun Sep 19, 9:04pm

Sun Sep 19, 8:04pm

Sun Sep 19, 7:04pm

Sun Sep 19, 6:04pm

Sun Sep 19, 5:04pm

Sun Sep 19, 4:04pm

Sun Sep 19, 3:04pm

Sun Sep 19, 2:05pm

Sun Sep 19, 1:04pm

Sun Sep 19, 12:04pm

Sun Sep 19, 11:04am

Sun Sep 19, 10:05am

Sun Sep 19, 9:04am

Sun Sep 19, 8:04am

Sun Sep 19, 7:04am

Sun Sep 19, 6:04am

Sun Sep 19, 5:04am

Sun Sep 19, 4:04am

Sun Sep 19, 3:04am

Sun Sep 19, 2:04am

Sun Sep 19, 1:04am

Sun Sep 19, 12:04am

Sat Sep 18, 11:05pm

Sat Sep 18, 10:04pm

Sat Sep 18, 9:04pm

Sat Sep 18, 8:04pm

Sat Sep 18, 7:04pm

Sat Sep 18, 6:04pm

Sat Sep 18, 5:04pm

Sat Sep 18, 4:04pm

Sat Sep 18, 3:04pm

Sat Sep 18, 2:04pm

Sat Sep 18, 1:04pm

Sat Sep 18, 12:04pm

Sat Sep 18, 11:04am

Sat Sep 18, 10:04am

Sat Sep 18, 9:04am

Sat Sep 18, 8:04am

Sat Sep 18, 7:04am

Sat Sep 18, 6:04am

Sat Sep 18, 5:04am

Sat Sep 18, 4:04am

Sat Sep 18, 3:04am

Sat Sep 18, 2:04am

Sat Sep 18, 1:04am

Sat Sep 18, 12:04am

Fri Sep 17, 11:04pm

Fri Sep 17, 10:04pm

Fri Sep 17, 9:04pm

Fri Sep 17, 8:04pm

Fri Sep 17, 7:04pm

Fri Sep 17, 6:04pm

Fri Sep 17, 5:04pm

Fri Sep 17, 4:04pm

Fri Sep 17, 3:04pm

Fri Sep 17, 2:04pm

Fri Sep 17, 1:04pm

Fri Sep 17, 12:05pm

Fri Sep 17, 10:04am

Fri Sep 17, 9:04am

Fri Sep 17, 8:04am

Fri Sep 17, 7:04am

Fri Sep 17, 6:04am

Fri Sep 17, 5:04am

Fri Sep 17, 4:04am

Fri Sep 17, 3:04am

Fri Sep 17, 2:04am

Fri Sep 17, 1:04am

Fri Sep 17, 12:04am

Thu Sep 16, 11:04pm

Thu Sep 16, 10:04pm

Thu Sep 16, 9:04pm

Thu Sep 16, 8:04pm

Thu Sep 16, 7:04pm

Thu Sep 16, 6:04pm

Thu Sep 16, 5:04pm

Thu Sep 16, 4:04pm

Thu Sep 16, 3:04pm

Thu Sep 16, 2:04pm

Thu Sep 16, 1:05pm

Thu Sep 16, 12:04pm

Thu Sep 16, 11:05am

Thu Sep 16, 10:05am

Thu Sep 16, 9:04am

Thu Sep 16, 8:04am

Thu Sep 16, 7:04am

Thu Sep 16, 6:04am

Thu Sep 16, 5:04am

Thu Sep 16, 4:04am

Thu Sep 16, 3:04am

Thu Sep 16, 2:04am

Thu Sep 16, 1:04am

Thu Sep 16, 12:04am

Wed Sep 15, 11:04pm

Wed Sep 15, 10:04pm

Wed Sep 15, 9:04pm

Wed Sep 15, 8:04pm

Wed Sep 15, 7:04pm

Wed Sep 15, 6:04pm

Wed Sep 15, 5:05pm

Wed Sep 15, 4:04pm

Wed Sep 15, 3:04pm

Wed Sep 15, 2:04pm

Meta data:

ID: c2114c9f-7cef-45fb-9de5-b6b630d7bce3
Link: https://api.weather.gov/products/c2114c9f-7cef-45fb-9de5-b6b630d7bce3